View from above orbital plane
|
View from above satellite
|
Ground track
|
The orbit data is extracted from the following two-line orbital elements,
1 02144U 66031B 21018.66921780 .00000044 00000-0 18964-4 0 9998
2 02144 35.0419 137.5746 0007735 135.3816 224.7497 14.42784675877181
Epoch (UTC): | 18 January 2021 16:03:40 |
Eccentricity: | 0.0007735 |
inclination: | 35.0419° |
perigee height: | 744 km |
apogee height: | 755 km |
right ascension of ascending node: | 137.5746° |
argument of perigee: | 135.3816° |
revolutions per day: | 14.42784675 |
mean anomaly at epoch: | 224.7497° |
orbit number at epoch: | 87718 |
The dashed part of the orbit path shows where the satellite is in the earth's shadow,
|
|